{"data":{"norad_id":60552,"intl_designator":"2024-149CN","name":"SATELIOT_3","alt_names":[],"object_type":"PAYLOAD","status":"ACTIVE","operator":null,"country":"SPN","launch_date":"2024-08-16","launch_site_code":"AFWTR","launch_vehicle":null,"mission":null,"orbit_class":"UNKNOWN","rcs_meters":null,"size_class":null,"mass_kg":null,"dimensions":null,"purposes":[],"wikipedia_slug":null,"has_3d_model":false,"image_url":null,"decayed_at":null,"tle_current":{"epoch":"2026-05-25T03:47:13.812000Z","epoch_age_seconds":54572,"freshness":"FRESH","line1":"1 60552U 24149CN  26145.15779875  .00002292  00000+0  19925-3 0  9998","line2":"2 60552  97.6823 222.2094 0006226 146.3546 213.8072 14.97942369 96632","mean_motion":14.97942369,"eccentricity":0.0006226,"inclination_deg":97.6823,"raan_deg":222.2094,"arg_perigee_deg":146.3546,"mean_anomaly_deg":213.8072,"bstar":0.00019925,"rev_number":9663,"period_min":96.131869276207,"perigee_km":568.92692975165,"apogee_km":577.5828029036,"semimajor_km":6951.3918663276,"source":"CELESTRAK","updated_at":"2026-05-25T13:38:02.152692Z"}}}